TimeEDT,TemperatureF,Dew PointF,Humidity,Sea Level PressureIn,VisibilityMPH,Wind Direction,Wind SpeedMPH,Gust SpeedMPH,PrecipitationIn,Events,Conditions,WindDirDegrees,DateUTC
12:54 AM,64.0,61.0,90,29.73,10.0,Calm,Calm,-,N/A,,Clear,0,2013-06-30 04:54:00
1:54 AM,62.1,60.1,93,29.73,10.0,Calm,Calm,-,N/A,,Clear,0,2013-06-30 05:54:00
2:54 AM,62.1,59.0,90,29.72,10.0,Calm,Calm,-,N/A,,Clear,0,2013-06-30 06:54:00
3:54 AM,61.0,57.9,90,29.70,10.0,North,3.5,-,N/A,,Scattered Clouds,10,2013-06-30 07:54:00
4:54 AM,60.1,59.0,96,29.72,10.0,Calm,Calm,-,N/A,,Overcast,0,2013-06-30 08:54:00
5:54 AM,60.1,57.9,93,29.74,10.0,Calm,Calm,-,N/A,,Partly Cloudy,0,2013-06-30 09:54:00
6:54 AM,61.0,59.0,93,29.75,10.0,Calm,Calm,-,N/A,,Mostly Cloudy,0,2013-06-30 10:54:00
7:54 AM,62.1,60.1,93,29.78,10.0,South,3.5,-,N/A,,Scattered Clouds,190,2013-06-30 11:54:00
8:54 AM,66.9,61.0,81,29.78,10.0,NNW,3.5,-,N/A,,Clear,340,2013-06-30 12:54:00
9:54 AM,72.0,60.1,66,29.78,10.0,Calm,Calm,-,N/A,,Clear,0,2013-06-30 13:54:00
10:54 AM,75.0,59.0,57,29.77,10.0,Calm,Calm,-,N/A,,Clear,0,2013-06-30 14:54:00
11:54 AM,78.1,57.9,50,29.77,10.0,SSW,5.8,-,N/A,,Clear,200,2013-06-30 15:54:00
12:54 PM,82.0,55.9,41,29.76,10.0,South,11.5,-,N/A,,Scattered Clouds,170,2013-06-30 16:54:00
1:54 PM,80.1,61.0,52,29.75,10.0,SSE,8.1,16.1,N/A,,Mostly Cloudy,160,2013-06-30 17:54:00
2:54 PM,81.0,59.0,47,29.73,10.0,Calm,Calm,-,N/A,,Mostly Cloudy,0,2013-06-30 18:54:00
3:54 PM,80.1,60.1,50,29.73,10.0,SE,4.6,-,N/A,,Overcast,140,2013-06-30 19:54:00
4:54 PM,79.0,63.0,58,29.74,10.0,South,9.2,-,N/A,,Partly Cloudy,170,2013-06-30 20:54:00
5:54 PM,75.9,64.0,67,29.75,10.0,SSE,11.5,-,N/A,,Overcast,160,2013-06-30 21:54:00
6:54 PM,75.9,64.0,67,29.77,10.0,SSE,9.2,-,0.00,,Mostly Cloudy,150,2013-06-30 22:54:00
7:54 PM,73.9,64.0,71,29.78,10.0,South,6.9,-,N/A,,Mostly Cloudy,170,2013-06-30 23:54:00
8:54 PM,73.0,64.9,76,29.79,10.0,SSE,9.2,-,N/A,,Overcast,160,2013-07-01 00:54:00
9:54 PM,71.1,64.0,78,29.80,10.0,SSE,3.5,-,N/A,,Scattered Clouds,150,2013-07-01 01:54:00
10:03 PM,69.8,64.4,83,29.88,10.0,SSE,3.5,-,N/A,,Mostly Cloudy,150,2013-07-01 02:03:00
10:12 PM,69.8,64.4,83,29.89,10.0,SE,3.5,-,N/A,,Overcast,130,2013-07-01 02:12:00
10:54 PM,70.0,64.9,84,29.81,10.0,SSE,4.6,-,N/A,,Mostly Cloudy,160,2013-07-01 02:54:00
11:54 PM,70.0,64.9,84,29.81,10.0,SSE,5.8,-,N/A,,Mostly Cloudy,160,2013-07-01 03:54:00